DELTA 1 DEB

Satellite information

Favourite Embed

Satellite Type and Status

DEBRISIN ORBIT

Key statistics

Satellite DELTA 1 DEB at a glance.

Uptime

17454

Days in orbit

Revolutions

≈ 13.9

Per day

Orbit

SSO

Sun Synchronous Orbit

Inclination

99.0

Latest

Satellite identification and parameters

Extended collection of information and parameters for DELTA 1 DEB.

Object identification

Identified? True

Debris? True

Object name: DELTA 1 DEB

International designator: 1978-026KH

Object number (NORAD): 37670

Object ID (CCSDS): 37670

Country: UNITED STATES OF AMERICA (US)

Current information (Y/N): Y

RCS size: SMALL

Orbital parameters

Period: 103.804 minutes

Inclination: 99.038 deg

SMA: 7316.488 km

Apoapsis: 989.821 km

Periapsis: 886.885 km

RAAN: 248.4775 deg

Eccentricy: 0.00703448

Argument of periapsis: 286.5143 deg

Mean anomaly: 72.8294 deg

Mean motion: 13.87230945 rev/day

Mean motion (dot): 0.0000005 rev/day2

B* drag term: 0.000077969794 1/REarth

Two-line elements (TLE)

Creation date: Dec. 15, 2025, 8:47 p.m.

Reference frame: TEME

Reference center: EARTH

Epoch: Dec. 14, 2025, 11:50 p.m. UTC

TLE line 0: 0 DELTA 1 DEB

TLE line 1: 1 37670U 78026KH 25348.99369665 .00000050 00000-0 77970-4 0 9990

TLE line 2: 2 37670 99.0380 248.4775 0070345 286.5143 72.8294 13.87230945628054

Live tracking on map

Real-time ground track for satellite DELTA 1 DEB.

In-orbit conjunctions

A list of the most updated potential collisions computed for object DELTA 1 DEB.

Target Orbit TCA Probability of collision Miss distance Type
CZ-6A DEB SSO 2025-08-12 11:38:02 0.0001444582 88.0 (m) DEBRIS

Associated space launch

Earth observation satellite

DELTA 1 DEB was lifted into orbit during the mission ‘Delta 2910 | Landsat 3’, on board a Delta 2910 space rocket.

The launch took place on March 5, 1978, 5:54 p.m. from Space Launch Complex 2W.

For more information about the launch, click the button.

Launch to space Delta 2910 | Landsat 3
Delta 2910 | Landsat 3

Agency: N/A

Status: Launch Successful

Launch date: March 5, 1978, 5:54 p.m. UTC

Rocket: Delta 2910

Launch pad: Space Launch Complex 2W

Location: Vandenberg SFB, CA, USA

...

Latest news about this satellite

There are no fresh news available about this satellite. Check back as we update our databases every day.


Newsletter sign-up

Weekly statistics, charts and insights to help you stay on top of the space industry.